Wind_Speed
15 15 17 18 17 14 14 15 14 14 16 18 18 18 18 18 18 19 18 17 16 16 17 17 16 16 16 18 18 18 18 18 18 18 18 17 17 17 16 15 15 15 22 24 15 10 8 9 12 14 15 15
16 18 19 19 18 16 15 17 17 15 16 18 19 19 18 18 19 20 19 19 18 17 17 16 16 16 17 18 18 18 19 19 19 18 19 18 17 18 18 16 15 17 24 25 19 15 11 9 10 11 14 15
15 18 20 20 19 19 17 18 18 18 17 17 19 19 18 20 21 23 22 22 20 20 19 17 18 18 18 18 17 18 19 19 20 19 19 19 18 20 20 18 18 22 28 27 22 19 17 16 13 12 13 15
13 15 19 20 19 18 18 19 20 20 19 18 18 20 21 22 23 24 24 24 24 24 21 19 21 21 19 18 18 20 19 19 21 20 20 20 19 19 19 19 23 27 30 29 25 23 22 21 19 15 15 16
7 10 14 18 18 18 17 18 19 20 21 20 19 21 23 23 23 25 25 26 26 26 24 22 24 24 21 18 20 22 20 20 21 20 20 20 20 19 18 21 26 28 29 29 27 26 26 25 23 20 18 18
4 5 8 11 15 18 18 18 18 19 21 22 22 22 25 25 24 26 28 28 27 27 26 25 26 26 24 20 21 23 21 21 22 22 22 20 20 19 20 23 26 27 29 30 29 29 28 27 27 24 22 22
6 6 5 7 10 13 16 18 20 19 18 21 23 24 25 27 27 28 29 29 29 28 27 27 28 28 26 22 22 23 23 24 24 24 24 23 21 21 23 26 28 28 29 32 31 31 29 27 27 25 23 23
12 11 9 8 8 10 12 14 18 19 18 19 22 24 26 28 30 30 30 31 30 30 30 30 30 30 29 26 25 24 24 26 27 27 25 25 25 24 28 29 31 31 32 34 33 31 28 24 23 22 22 22
15 16 16 14 11 11 11 12 15 17 19 21 21 22 24 27 31 32 32 33 33 33 32 32 32 33 32 31 30 27 27 28 29 30 29 28 29 30 33 33 34 35 35 36 33 31 27 21 21 20 22 22
12 15 17 18 17 16 15 14 14 14 16 19 21 23 23 25 29 33 34 35 35 36 35 34 34 34 34 34 34 31 30 31 30 32 32 32 34 35 37 35 35 36 36 36 33 31 27 21 21 21 22 23
16 13 13 15 18 19 20 19 18 17 16 16 18 22 25 26 27 30 34 36 37 37 36 37 36 34 35 35 37 36 32 34 33 33 35 36 37 38 38 35 33 33 32 33 31 29 25 21 22 23 22 24
24 21 17 15 14 15 18 21 22 22 20 18 18 20 22 25 29 30 32 35 37 38 37 37 37 36 36 35 36 36 34 35 36 36 37 38 38 39 38 35 33 30 29 28 26 25 23 21 23 23 22 24
28 26 24 22 19 16 15 16 20 23 24 22 20 20 20 22 25 29 33 36 38 38 39 39 39 37 38 37 35 35 35 37 39 38 39 40 39 39 38 35 32 30 28 26 25 22 20 21 21 21 21 23
33 31 30 28 25 23 20 17 15 18 23 26 25 23 22 22 22 25 29 36 40 39 39 40 41 41 40 39 38 37 36 36 40 40 39 41 41 40 39 37 33 31 29 27 25 23 21 21 20 19 20 20
36 35 35 33 31 28 26 23 20 17 17 21 26 27 26 25 24 24 25 28 35 37 38 39 41 43 44 42 40 40 39 37 39 42 42 42 42 42 40 39 36 33 31 29 27 25 23 22 22 20 19 18
38 37 37 37 36 33 31 28 26 23 20 18 19 23 27 30 28 26 25 25 27 29 33 37 39 42 45 45 43 42 42 40 38 41 44 43 42 43 42 40 40 37 34 31 29 26 24 24 23 21 20 19
37 37 37 38 38 37 35 32 30 27 25 22 19 18 20 26 31 32 29 27 26 25 27 32 36 40 43 45 46 44 43 42 38 38 44 45 43 44 44 43 42 40 38 35 32 29 27 25 24 23 22 22
36 36 36 37 37 37 36 35 33 29 26 25 24 21 18 19 24 31 34 32 29 28 27 29 31 34 37 41 45 46 44 43 40 37 41 46 46 46 46 46 43 42 41 38 36 33 31 29 26 25 24 23
34 34 34 35 35 34 34 34 34 31 26 23 24 24 22 19 19 23 30 34 33 31 29 29 29 28 32 36 40 44 45 45 42 38 39 44 48 48 48 48 46 44 43 40 38 36 33 32 30 28 27 25
28 28 30 31 31 31 31 30 30 30 27 23 23 24 25 23 21 21 23 29 34 34 31 30 28 26 28 33 35 40 45 46 44 40 38 41 47 50 50 49 49 47 45 42 40 37 36 34 33 32 30 27
26 24 27 28 28 28 29 29 27 26 26 25 24 24 25 25 24 24 23 24 29 34 35 32 30 28 28 30 32 35 41 46 46 42 40 40 42 47 51 51 51 49 48 45 42 40 39 38 36 35 33 30
27 26 27 28 28 28 29 28 25 25 25 26 26 25 25 25 26 26 26 26 27 31 35 35 33 30 29 29 31 32 35 42 46 45 42 41 41 44 48 51 53 52 50 48 45 43 41 40 39 37 35 33
29 29 29 29 29 29 28 27 26 27 27 25 25 26 26 25 26 26 27 28 28 30 33 35 36 34 31 29 31 31 31 35 43 47 45 44 44 45 46 49 51 52 51 49 47 46 44 42 40 39 38 37
30 31 31 30 30 31 30 29 29 29 29 28 27 27 26 26 26 26 27 28 29 30 31 33 35 36 35 31 30 32 32 32 36 43 47 46 46 46 48 48 50 51 52 51 50 48 46 44 42 41 41 40
30 30 32 33 33 33 30 29 29 30 30 30 30 30 28 27 28 28 29 28 29 30 31 32 33 34 36 35 32 31 33 33 34 37 43 48 48 48 50 50 51 52 52 51 50 48 47 46 44 42 42 42
30 30 31 32 32 30 28 27 28 30 31 31 31 30 29 30 30 30 30 29 27 27 29 31 33 34 34 35 35 34 33 33 34 36 39 44 48 50 51 52 53 53 53 52 52 50 46 43 43 43 42 42
30 30 29 28 27 27 27 28 28 29 31 31 29 28 29 32 33 31 29 27 24 24 26 28 31 33 33 33 34 36 37 35 34 36 38 41 44 48 50 51 52 54 55 54 51 46 41 41 41 39 41 45
30 29 28 28 27 28 28 29 29 30 31 31 30 30 30 31 33 32 29 26 24 24 23 23 26 29 31 32 32 33 37 39 38 37 38 40 42 45 47 48 50 53 55 56 52 44 38 35 32 32 42 50
33 32 32 32 30 29 30 30 30 31 32 32 32 32 32 31 31 31 30 28 28 27 26 25 26 27 28 30 30 31 33 38 40 40 39 40 41 43 46 47 47 49 52 55 55 51 42 30 27 35 42 42
33 33 33 33 30 29 31 31 31 31 31 32 32 32 32 31 30 30 32 32 31 31 30 30 30 29 28 28 29 30 31 34 38 41 41 41 40 40 44 46 45 44 48 52 55 55 52 42 39 42 38 32
33 34 33 34 32 30 30 30 30 31 31 31 31 31 31 32 31 31 32 33 32 31 31 30 31 31 31 29 28 29 31 33 35 39 42 43 42 40 40 42 45 45 45 48 52 53 54 52 48 44 39 37
Wind_Direction
248 248 249 246 245 238 235 239 236 232 221 213 219 225 220 223 224 225 229 225 222 220 220 219 216 217 214 213 207 201 205 208 206 205 206 204 204 205 204 209 209 210 235 245 236 215 198 186 186 186 183 184
251 248 250 249 251 246 235 235 238 240 234 219 214 223 226 223 223 225 229 230 225 221 223 223 222 219 218 217 212 205 205 209 209 207 206 205 204 207 206 207 214 214 226 239 236 229 233 225 211 201 195 190
269 258 257 256 259 260 250 242 240 242 243 232 217 219 228 226 226 225 225 228 224 220 223 225 225 222 219 218 216 213 209 210 211 209 209 208 206 208 209 206 213 219 225 236 236 236 244 244 236 224 213 202
290 277 270 266 266 270 267 257 248 244 245 242 227 219 224 228 230 229 228 230 228 226 224 224 227 225 221 215 216 219 211 211 213 211 210 209 210 210 208 208 215 224 231 238 238 241 245 243 241 237 233 219
295 289 281 274 270 272 273 270 262 256 251 245 237 226 221 225 231 233 234 234 234 233 229 224 226 226 222 212 215 220 211 212 214 212 212 209 211 211 209 214 220 228 236 241 241 242 243 242 242 240 242 233
269 288 294 283 274 273 274 272 269 269 267 256 246 235 225 225 229 233 236 236 236 237 236 228 225 228 225 214 214 219 211 212 214 212 214 210 211 210 211 220 227 233 238 242 243 244 244 244 245 245 245 236
265 264 281 291 283 286 288 278 269 267 271 269 257 246 235 229 228 231 235 237 237 237 239 235 231 232 231 221 216 215 211 212 213 214 214 212 212 212 213 221 229 233 237 242 243 244 246 248 251 250 244 234
274 268 269 282 286 294 304 294 283 273 268 270 265 257 247 237 231 231 235 237 238 238 238 237 237 239 238 231 221 214 212 214 212 211 213 213 213 214 215 220 228 233 237 242 245 247 248 249 252 246 238 234
282 276 269 269 272 277 291 295 295 287 276 268 263 261 257 249 238 233 235 237 239 239 238 236 236 240 242 238 231 220 212 217 215 208 209 212 213 214 215 218 225 232 237 242 246 250 250 246 246 240 235 237
317 296 281 273 268 265 268 275 285 290 287 279 267 258 257 255 248 241 237 237 240 240 239 238 237 237 241 242 239 231 214 214 218 210 208 211 213 214 217 219 223 229 234 240 245 250 249 240 237 236 236 239
6 347 320 297 282 273 266 262 267 275 281 287 283 268 256 250 250 249 243 240 241 243 241 240 240 238 240 242 242 238 220 212 217 215 212 213 216 217 219 222 226 229 232 237 242 247 247 236 233 234 235 238
8 5 358 345 323 301 283 269 262 263 268 273 279 278 269 257 249 247 246 244 243 245 244 241 241 241 242 243 243 239 225 214 216 219 219 218 218 220 221 224 227 228 231 235 238 242 240 228 226 230 232 235
357 357 357 356 351 341 324 297 274 264 263 265 267 270 273 271 260 250 245 242 243 246 246 243 242 242 242 244 245 241 229 217 217 220 223 223 221 221 223 225 228 229 230 233 234 235 229 220 221 225 229 233
350 349 349 348 347 345 342 333 313 285 268 264 264 265 266 267 269 265 254 243 240 243 244 244 243 243 242 242 244 245 238 226 221 222 224 225 223 223 225 227 230 232 232 232 232 231 225 222 223 224 228 232
347 345 344 343 342 339 336 334 330 321 297 276 265 262 263 264 265 267 266 254 246 245 244 242 242 242 242 242 242 243 243 238 230 226 226 226 225 225 227 230 232 233 235 234 233 232 230 231 232 230 229 231
343 341 339 338 337 335 333 329 326 323 318 307 286 270 262 260 263 265 267 265 259 256 253 248 242 238 238 241 242 242 242 243 238 231 229 228 227 228 229 232 234 235 236 238 236 235 234 236 239 239 236 233
340 338 335 333 332 331 329 326 323 320 315 311 306 295 276 263 259 262 265 267 265 263 261 258 251 242 236 236 240 242 242 242 242 235 229 228 228 228 229 231 234 235 237 238 239 238 237 237 240 243 242 239
336 333 331 329 326 326 325 322 318 316 313 307 302 298 294 282 267 261 261 263 265 263 262 261 260 254 246 239 236 238 240 240 241 237 229 227 227 228 229 231 232 234 236 238 239 239 239 239 239 242 244 244
332 328 326 324 320 319 318 317 314 311 307 300 296 294 291 288 281 270 263 260 261 262 263 263 263 261 258 251 241 236 238 238 239 239 233 228 227 229 230 232 233 233 235 238 240 240 241 241 241 242 243 246
326 319 316 316 311 309 309 309 307 305 303 293 285 284 285 283 278 273 268 264 261 260 261 263 264 262 261 259 250 240 238 239 238 239 237 231 228 229 231 232 233 234 236 238 240 242 244 245 244 244 244 245
323 313 308 308 301 296 299 303 300 296 296 293 282 274 273 275 273 268 264 263 262 260 259 259 260 260 259 259 255 246 240 240 239 239 239 235 231 230 232 234 235 235 236 237 239 241 244 245 246 247 247 247
322 316 309 306 299 293 296 300 298 296 296 293 286 276 267 266 268 268 263 259 259 259 258 257 257 257 257 255 254 251 244 241 240 240 240 238 236 234 233 234 236 237 238 238 239 240 242 244 245 247 249 249
323 318 312 306 302 299 300 302 302 303 305 302 293 284 275 267 264 265 263 261 259 259 259 257 255 254 255 255 253 251 249 243 238 238 239 238 237 235 234 236 238 239 240 240 241 241 242 243 244 245 247 248
322 317 311 306 302 300 301 302 303 306 307 307 305 298 289 278 271 266 262 260 261 261 261 260 257 252 251 254 253 250 249 247 241 238 237 237 237 235 233 235 236 238 238 239 240 241 243 243 242 243 245 247
320 314 309 306 301 300 301 302 304 307 308 306 306 305 300 292 285 278 270 266 264 264 264 264 262 257 250 249 250 251 249 247 244 242 238 235 235 234 233 232 232 234 234 234 235 236 238 240 242 242 243 245
316 310 307 306 302 300 301 304 305 305 307 307 304 300 302 302 297 292 282 275 272 271 272 270 267 263 257 250 247 248 249 248 245 242 238 233 229 229 231 231 231 230 229 228 230 231 231 232 236 240 241 243
317 311 309 310 308 307 306 306 305 303 304 306 303 298 301 304 302 300 291 281 280 282 280 276 272 268 264 259 252 248 246 248 249 246 242 235 230 227 227 228 228 228 228 227 226 224 224 225 226 230 235 239
319 313 309 308 306 308 308 307 305 303 302 303 303 300 302 303 301 301 295 285 282 284 280 277 276 272 268 266 262 256 249 245 246 248 248 243 235 230 227 225 224 226 228 227 222 216 214 219 218 221 231 234
320 313 308 304 304 309 310 309 308 306 303 302 302 302 301 300 299 299 296 289 284 282 279 277 276 274 271 268 267 266 259 250 245 245 248 248 241 233 229 228 225 225 225 223 224 221 215 212 211 220 230 231
319 316 312 307 305 311 314 312 311 310 307 305 303 302 300 298 297 295 294 293 290 286 283 278 275 274 273 270 267 267 266 260 252 246 245 246 244 237 232 231 229 227 225 223 224 225 224 227 229 229 227 223
315 315 314 309 304 305 312 312 310 309 307 305 303 301 300 297 295 293 292 292 291 290 288 284 279 275 273 271 268 266 266 263 258 252 248 246 244 239 233 232 230 228 227 224 222 222 226 230 234 235 232 227
Height
1506 1506 1506 1507 1507 1508 1509 1509 1509 1510 1510 1511 1512 1512 1513 1514 1514 1515 1516 1516 1516 1516 1517 1517 1517 1518 1518 1519 1520 1522 1523 1524 1525 1526 1526 1527 1528 1529 1531 1531 1532 1533 1529 1528 1531 1532 1532 1533 1533 1533 1534 1535
1505 1505 1506 1506 1507 1507 1508 1508 1508 1509 1509 1509 1510 1511 1511 1512 1512 1513 1514 1514 1515 1516 1516 1516 1517 1517 1518 1518 1519 1520 1522 1523 1523 1524 1525 1525 1527 1527 1529 1530 1531 1531 1527 1527 1530 1531 1531 1532 1532 1533 1534 1534
1504 1504 1505 1505 1506 1506 1506 1507 1507 1507 1508 1508 1509 1510 1510 1511 1511 1511 1512 1512 1513 1514 1515 1515 1516 1517 1517 1518 1518 1519 1520 1522 1522 1523 1523 1524 1525 1526 1527 1528 1529 1527 1524 1526 1529 1530 1530 1530 1531 1532 1533 1533
1503 1504 1504 1504 1505 1505 1505 1505 1505 1506 1506 1507 1507 1508 1509 1509 1510 1510 1510 1511 1511 1512 1513 1513 1514 1515 1516 1517 1518 1519 1519 1521 1521 1522 1522 1523 1524 1524 1525 1527 1526 1524 1523 1524 1527 1528 1528 1529 1529 1530 1531 1532
1500 1501 1502 1503 1503 1503 1503 1504 1504 1504 1504 1505 1506 1507 1507 1508 1508 1508 1508 1509 1509 1510 1511 1511 1512 1512 1514 1515 1517 1517 1518 1519 1520 1520 1521 1522 1523 1523 1524 1524 1523 1522 1521 1522 1524 1525 1526 1527 1527 1528 1530 1531
1498 1499 1499 1500 1501 1501 1501 1502 1502 1502 1503 1503 1504 1505 1505 1506 1506 1506 1506 1506 1507 1507 1508 1509 1509 1510 1511 1513 1514 1515 1516 1518 1519 1519 1520 1521 1521 1522 1522 1521 1521 1521 1520 1519 1521 1522 1524 1525 1525 1527 1528 1529
1499 1499 1498 1498 1499 1499 1500 1500 1500 1500 1501 1501 1502 1503 1504 1504 1504 1504 1505 1505 1505 1505 1506 1507 1507 1508 1509 1510 1512 1513 1514 1515 1516 1517 1518 1519 1520 1521 1520 1519 1519 1519 1518 1517 1518 1520 1522 1523 1523 1525 1526 1527
1499 1499 1499 1498 1498 1497 1497 1498 1498 1498 1499 1499 1500 1500 1501 1502 1502 1502 1503 1503 1503 1503 1504 1504 1505 1506 1507 1508 1509 1510 1511 1512 1513 1515 1516 1517 1518 1518 1517 1517 1516 1516 1515 1515 1516 1518 1520 1522 1522 1523 1524 1524
1499 1499 1499 1499 1498 1497 1496 1496 1496 1496 1497 1497 1498 1498 1499 1499 1500 1500 1500 1501 1501 1501 1502 1502 1502 1503 1504 1505 1506 1507 1509 1509 1510 1511 1513 1514 1514 1514 1513 1514 1514 1513 1513 1513 1514 1516 1518 1520 1520 1522 1523 1522
1500 1499 1498 1498 1498 1497 1497 1496 1495 1494 1494 1494 1495 1495 1496 1496 1497 1498 1498 1498 1499 1499 1499 1500 1500 1500 1501 1502 1502 1504 1506 1506 1508 1509 1509 1510 1510 1510 1510 1511 1511 1511 1511 1511 1513 1514 1516 1519 1519 1520 1521 1521
1500 1499 1499 1498 1497 1497 1496 1496 1495 1494 1493 1492 1492 1492 1493 1493 1494 1494 1495 1496 1496 1496 1497 1497 1497 1498 1498 1498 1499 1501 1503 1504 1505 1506 1507 1507 1508 1507 1507 1508 1508 1509 1509 1510 1511 1512 1514 1517 1517 1518 1519 1520
1501 1500 1499 1498 1497 1496 1495 1495 1494 1493 1492 1491 1491 1490 1490 1490 1491 1492 1492 1492 1493 1493 1493 1493 1494 1495 1495 1496 1496 1497 1500 1501 1502 1503 1504 1504 1505 1505 1505 1505 1505 1506 1507 1507 1508 1510 1512 1514 1515 1516 1517 1518
1500 1499 1499 1498 1497 1496 1495 1494 1493 1492 1491 1490 1489 1488 1488 1488 1488 1488 1489 1489 1489 1489 1489 1489 1490 1491 1492 1493 1493 1494 1496 1498 1499 1500 1501 1501 1502 1502 1502 1502 1503 1503 1504 1505 1506 1507 1509 1511 1513 1514 1515 1516
1499 1498 1498 1497 1496 1495 1494 1493 1492 1491 1490 1489 1488 1487 1486 1486 1486 1485 1485 1485 1486 1486 1485 1486 1486 1486 1487 1488 1489 1490 1491 1494 1495 1496 1497 1498 1498 1499 1499 1500 1500 1501 1502 1503 1504 1505 1507 1508 1510 1512 1513 1514
1498 1497 1496 1496 1495 1494 1493 1492 1491 1490 1488 1487 1486 1485 1485 1484 1483 1483 1482 1482 1482 1482 1482 1482 1482 1483 1483 1484 1485 1486 1487 1489 1492 1493 1494 1494 1495 1496 1496 1497 1498 1499 1500 1500 1502 1503 1504 1506 1507 1509 1511 1512
1496 1496 1495 1494 1493 1492 1491 1490 1489 1488 1487 1486 1484 1483 1482 1482 1481 1480 1479 1479 1479 1479 1479 1479 1479 1479 1479 1479 1480 1482 1483 1484 1487 1489 1490 1492 1493 1494 1495 1495 1496 1497 1498 1498 1500 1501 1502 1504 1504 1506 1508 1509
1494 1494 1493 1492 1491 1490 1489 1488 1487 1486 1485 1484 1482 1481 1480 1479 1478 1477 1476 1476 1476 1475 1475 1475 1475 1475 1475 1476 1477 1478 1479 1480 1482 1484 1486 1488 1490 1491 1492 1493 1493 1494 1495 1496 1497 1498 1500 1501 1502 1503 1504 1506
1492 1491 1491 1490 1488 1488 1487 1485 1484 1483 1482 1481 1479 1478 1477 1476 1475 1474 1473 1473 1472 1472 1472 1471 1471 1472 1472 1473 1474 1474 1475 1476 1478 1479 1481 1484 1486 1487 1488 1489 1490 1490 1491 1493 1494 1495 1497 1498 1499 1500 1501 1503
1489 1488 1487 1487 1485 1485 1484 1482 1481 1480 1479 1478 1476 1475 1474 1473 1472 1471 1470 1469 1468 1468 1468 1468 1468 1468 1469 1470 1470 1471 1472 1472 1473 1474 1475 1478 1481 1483 1484 1485 1486 1487 1488 1489 1491 1492 1493 1494 1496 1497 1498 1499
1485 1484 1484 1484 1483 1482 1481 1479 1478 1476 1476 1475 1473 1471 1470 1470 1469 1468 1467 1466 1465 1464 1464 1464 1464 1465 1466 1466 1467 1467 1468 1468 1469 1470 1471 1472 1475 1478 1480 1482 1483 1483 1485 1486 1487 1489 1490 1491 1492 1493 1494 1496
1482 1481 1481 1481 1481 1479 1478 1477 1475 1473 1472 1470 1469 1468 1466 1466 1465 1464 1463 1462 1461 1460 1461 1461 1461 1461 1462 1463 1463 1464 1465 1465 1465 1466 1467 1467 1469 1472 1476 1478 1479 1480 1481 1482 1484 1486 1487 1488 1489 1489 1491 1492
1479 1478 1479 1478 1478 1477 1475 1474 1472 1471 1469 1467 1465 1464 1462 1461 1461 1460 1459 1459 1458 1457 1457 1457 1457 1457 1458 1458 1459 1460 1461 1462 1462 1462 1463 1463 1464 1467 1470 1473 1475 1476 1478 1479 1480 1482 1483 1484 1485 1486 1488 1489
1476 1475 1476 1476 1475 1474 1472 1470 1469 1468 1466 1464 1463 1461 1459 1457 1456 1455 1455 1455 1454 1453 1453 1453 1453 1454 1454 1454 1454 1455 1456 1457 1458 1458 1458 1459 1460 1462 1464 1467 1470 1473 1475 1477 1477 1478 1479 1481 1482 1484 1484 1485
1473 1472 1473 1473 1472 1470 1468 1467 1465 1464 1463 1461 1460 1458 1456 1454 1452 1451 1451 1450 1450 1450 1449 1449 1449 1449 1450 1450 1450 1450 1451 1452 1454 1454 1455 1455 1456 1457 1459 1462 1465 1469 1472 1474 1475 1476 1477 1478 1479 1480 1481 1482
1471 1471 1471 1470 1468 1466 1465 1463 1461 1460 1459 1458 1457 1455 1454 1452 1450 1448 1447 1447 1446 1446 1445 1445 1444 1445 1446 1446 1446 1447 1447 1448 1449 1450 1451 1452 1452 1452 1454 1456 1459 1463 1468 1471 1472 1472 1473 1474 1475 1477 1478 1478
1470 1469 1469 1467 1465 1463 1461 1460 1458 1456 1455 1454 1453 1452 1450 1449 1448 1446 1444 1443 1443 1442 1442 1441 1440 1440 1441 1442 1442 1443 1443 1444 1444 1445 1447 1448 1448 1448 1449 1450 1452 1456 1461 1464 1465 1467 1469 1470 1472 1473 1474 1474
1469 1467 1466 1464 1462 1460 1458 1456 1455 1453 1452 1451 1449 1448 1447 1446 1445 1443 1441 1440 1440 1439 1438 1438 1437 1436 1436 1437 1438 1438 1438 1439 1440 1440 1442 1444 1445 1446 1446 1446 1447 1449 1452 1456 1460 1465 1466 1465 1466 1468 1468 1467
1467 1465 1463 1461 1459 1457 1455 1453 1451 1450 1449 1448 1446 1445 1444 1443 1441 1440 1439 1438 1437 1436 1435 1434 1433 1432 1431 1432 1433 1434 1434 1435 1436 1436 1437 1438 1440 1442 1443 1443 1443 1444 1447 1450 1453 1458 1460 1461 1463 1462 1459 1458
1464 1462 1459 1457 1455 1453 1451 1449 1448 1446 1445 1444 1443 1441 1440 1439 1438 1437 1436 1435 1434 1433 1432 1431 1430 1429 1428 1428 1429 1429 1430 1430 1431 1433 1433 1434 1435 1437 1438 1439 1440 1441 1443 1445 1446 1448 1451 1455 1456 1453 1451 1455
1461 1459 1457 1454 1452 1450 1448 1445 1444 1443 1441 1440 1439 1438 1437 1436 1435 1434 1433 1432 1431 1430 1429 1428 1428 1427 1426 1425 1425 1425 1425 1426 1426 1428 1429 1430 1431 1432 1433 1435 1437 1437 1438 1440 1442 1443 1444 1446 1447 1446 1449 1453
1458 1456 1454 1452 1449 1448 1445 1443 1440 1439 1438 1437 1436 1435 1433 1432 1431 1430 1429 1428 1428 1427 1427 1426 1425 1424 1424 1423 1422 1422 1422 1421 1422 1423 1424 1426 1427 1428 1429 1430 1431 1432 1435 1436 1437 1439 1441 1443 1444 1444 1446 1447